Denver, CO

1:38 PM MST on February 27, 2017 (GMT -0700)
Denver International

Weather History for KDEN - January, 2013

Change the Weather History Date:

Wednesday, January 16, 2013

  Actual Average Record
Temperature  
Mean Temperature 36 °F 31 °F  
Max Temperature 48 °F 44 °F 64 °F (1923)
Min Temperature 23 °F 18 °F -19 °F (1930)
Degree Days  
Heating Degree Days 29 34  
Month to date heating degree days 661 549  
Since 1 July heating degree days 2894 3017  
Cooling Degree Days 0 0  
Month to date cooling degree days 0 0  
Year to date cooling degree days 0 0  
Moisture  
Dew Point 16 °F    
Average Humidity 50    
Maximum Humidity 69    
Minimum Humidity 31    
Precipitation  
Precipitation 0.00 in 0.01 in 0.20 in (2017)
Month to date precipitation 0.08 0.21  
Year to date precipitation 0.08 0.21  
Snow  
Snow 0.00 in - - ()
Month to date snowfall 1.4  
Since 1 July snowfall 13.8  
Snow Depth 1.00 in    
Sea Level Pressure  
Sea Level Pressure 30.24 in    
Wind  
Wind Speed 9 mph (SSW)    
Max Wind Speed 15 mph    
Max Gust Speed 18 mph    
Visibility 10 miles    
Events      
T = Trace of Precipitation, MM = Missing Value Source: NWS Daily Summary

Daily Weather History Graph

Daily Weather History Graph

Search for Another Location

Airport or City:

Trip Planner

Search our weather history database for the weather conditions in past years. The results will help you decide how hot, cold, wet, or windy it might be!

Date:

Astronomy

Jan. 16, 2013 Rise Set
Actual Time 7:17 AM MST 4:59 PM MST
Civil Twilight 6:48 AM MST 5:29 PM MST
Nautical Twilight 6:14 AM MST 6:02 PM MST
Astronomical Twilight 5:42 AM MST 6:34 PM MST
Moon 9:55 AM MST (1/16) 10:53 PM MST (1/16)
Length of Visible Light 10h 41m
Length of Day
9h 42m
Waxing Crescent, 29% of the Moon is Illuminated
Jan 16
Waxing Crescent
Jan 18
First Quarter
Jan 26
Full
Feb 3
Last Quarter
Feb 10
New

Hourly Weather History & Observations

Time (MST) Temp. Windchill Dew Point Humidity Pressure Visibility Wind Dir Wind Speed Gust Speed Precip Events Conditions
12:53 AM 30.0 °F 22.4 °F 15.1 °F 54% 30.15 in 10.0 mi WSW 8.1 mph - N/A   Overcast
1:53 AM 27.0 °F 21.6 °F 12.0 °F 53% 30.17 in 10.0 mi WSW 4.6 mph - N/A   Mostly Cloudy
2:53 AM 30.9 °F 24.3 °F 12.9 °F 47% 30.16 in 10.0 mi WSW 6.9 mph - N/A   Mostly Cloudy
3:53 AM 26.1 °F 17.6 °F 12.0 °F 55% 30.19 in 10.0 mi WSW 8.1 mph - N/A   Partly Cloudy
4:53 AM 24.1 °F 13.1 °F 10.9 °F 57% 30.19 in 10.0 mi SSW 11.5 mph - N/A   Partly Cloudy
5:53 AM 26.1 °F 16.2 °F 10.9 °F 53% 30.19 in 10.0 mi WSW 10.4 mph - N/A   Partly Cloudy
6:53 AM 23.0 °F 12.4 °F 10.0 °F 58% 30.22 in 10.0 mi WSW 10.4 mph - N/A   Scattered Clouds
7:53 AM 28.0 °F 17.5 °F 10.9 °F 49% 30.22 in 10.0 mi SW 12.7 mph - N/A   Scattered Clouds
8:53 AM 30.9 °F 21.2 °F 14.0 °F 50% 30.23 in 10.0 mi SW 12.7 mph - N/A   Scattered Clouds
9:53 AM 35.1 °F 27.4 °F 17.1 °F 48% 30.22 in 10.0 mi SW 10.4 mph - N/A   Scattered Clouds
10:53 AM 39.0 °F 32.3 °F 19.0 °F 45% 30.19 in 10.0 mi SSW 10.4 mph - N/A   Scattered Clouds
11:53 AM 42.8 °F 38.0 °F 24.8 °F 49% 30.17 in 10.0 mi South 8.1 mph - N/A   Scattered Clouds
12:53 PM 46.4 °F 42.4 °F 23.0 °F 40% 30.16 in 10.0 mi SSW 8.1 mph - N/A   Scattered Clouds
1:53 PM 48.0 °F - 19.0 °F 32% 30.16 in 10.0 mi South 6.9 mph - N/A   Scattered Clouds
2:53 PM 46.9 °F - 21.9 °F 37% 30.17 in 10.0 mi South 9.2 mph - N/A   Scattered Clouds
3:53 PM 46.0 °F 44.8 °F 19.9 °F 35% 30.22 in 10.0 mi SSE 3.5 mph - N/A   Scattered Clouds
4:53 PM 41.0 °F 35.8 °F 21.0 °F 45% 30.26 in 10.0 mi East 8.1 mph - N/A   Scattered Clouds
5:53 PM 34.0 °F 26.6 °F 21.9 °F 61% 30.31 in 10.0 mi East 9.2 mph - N/A   Clear
6:53 PM 30.9 °F 22.8 °F 21.0 °F 67% 30.37 in 10.0 mi ESE 9.2 mph - N/A   Clear
7:53 PM 30.0 °F 21.1 °F 18.0 °F 61% 30.37 in 10.0 mi SSE 10.4 mph - N/A   Clear
8:53 PM 28.9 °F 19.2 °F 18.0 °F 64% 30.38 in 10.0 mi SSE 11.5 mph - N/A   Clear
9:53 PM 28.0 °F 17.5 °F 16.0 °F 61% 30.38 in 10.0 mi South 12.7 mph - N/A   Clear
10:53 PM 24.1 °F 13.1 °F 15.1 °F 69% 30.38 in 10.0 mi South 11.5 mph - N/A   Clear
11:53 PM 26.1 °F 18.4 °F 15.1 °F 63% 30.37 in 10.0 mi SW 6.9 mph - N/A   Clear